�N����,����,�~����,�C��,���x,�C��,����,���ϕ���,�ő�u�ԕ���,�ő厞����,���˗�,�I�_���x,�n�����x,�ő啗���N��,DTYPE
"22/04/19","00:10",0.0,13.0,60.4,1011.6,338.6,2.5,4.1,347.2,0.00,5.6,15.7,"00:03:16",1
"22/04/19","00:20",0.0,12.5,62.6,1011.6,339.7,2.2,3.5,342.2,0.00,5.6,15.5,"00:11:58",1
"22/04/19","00:30",0.0,12.3,63.9,1011.6,340.0,2.2,3.1,343.1,0.00,5.7,15.6,"00:20:24",1
"22/04/19","00:40",0.0,12.3,63.9,1011.4,323.2,2.5,3.3,304.7,0.00,5.7,15.4,"00:31:30",1
"22/04/19","00:50",0.0,12.2,64.5,1011.4,342.6,2.1,3.2,348.6,0.00,5.7,15.5,"00:40:56",1
"22/04/19","01:00",0.0,12.1,64.9,1011.2,338.6,2.3,3.3,340.5,0.00,5.7,15.6,"00:51:36",1
"22/04/19","01:10",0.0,12.3,63.9,1011.6,337.0,2.5,4.0,337.8,0.00,5.7,15.4,"01:02:24",1
"22/04/19","01:20",0.0,12.1,63.8,1011.2,333.8,2.6,4.1,340.0,0.00,5.5,15.2,"01:11:24",1
"22/04/19","01:30",0.0,11.8,64.3,1011.6,336.3,2.6,3.7,343.1,0.00,5.3,15.2,"01:23:46",1
"22/04/19","01:40",0.0,11.4,65.6,1011.2,331.6,2.6,3.4,309.6,0.00,5.2,15.4,"01:35:56",1
"22/04/19","01:50",0.0,11.1,66.8,1011.2,336.1,2.8,4.2,344.5,0.00,5.2,15.2,"01:44:50",1
"22/04/19","02:00",0.0,11.1,67.1,1011.4,335.3,3.4,5.5,341.8,0.00,5.3,15.1,"01:54:00",1
"22/04/19","02:10",0.0,10.9,67.8,1011.2,333.8,3.5,5.4,339.5,0.00,5.2,15.1,"02:06:18",1
"22/04/19","02:20",0.0,10.7,68.2,1011.2,333.6,3.0,4.5,344.3,0.00,5.1,15.1,"02:12:56",1
"22/04/19","02:30",0.0,10.5,68.1,1011.2,339.3,2.8,4.0,347.0,0.00,4.9,14.9,"02:20:40",1
"22/04/19","02:40",0.0,10.7,66.1,1011.2,340.7,2.8,3.9,341.1,0.00,4.7,14.9,"02:30:40",1
"22/04/19","02:50",0.0,11.0,63.6,1011.2,340.8,2.5,4.7,343.7,0.00,4.4,14.8,"02:48:06",1
"22/04/19","03:00",0.0,10.7,65.6,1011.2,334.9,3.2,4.5,330.6,0.00,4.6,15.0,"02:55:28",1
"22/04/19","03:10",0.0,10.5,67.7,1011.2,326.5,4.0,5.5,315.8,0.00,4.8,15.0,"03:02:48",1
"22/04/19","03:20",0.0,10.4,67.1,1011.2,315.1,3.2,5.6,318.7,0.00,4.6,14.8,"03:11:12",1
"22/04/19","03:30",0.0,10.3,66.4,1011.2,321.2,2.6,3.9,313.6,0.00,4.4,14.9,"03:21:44",1
"22/04/19","03:40",0.0,9.9,67.6,1011.4,330.9,2.5,3.3,325.4,0.00,4.2,14.8,"03:35:36",1
"22/04/19","03:50",0.0,9.7,68.8,1011.2,333.2,2.3,4.8,326.0,0.00,4.3,14.5,"03:41:04",1
"22/04/19","04:00",0.0,9.3,69.7,1011.2,331.6,1.8,3.4,327.0,0.00,4.1,14.7,"03:57:44",1
"22/04/19","04:10",0.0,9.1,70.8,1010.9,294.2,1.6,2.5,273.3,0.00,4.1,14.7,"04:07:04",1
"22/04/19","04:20",0.0,8.8,71.8,1011.2,288.9,2.2,2.9,302.5,0.00,4.0,14.4,"04:14:56",1
"22/04/19","04:30",0.0,8.8,72.6,1011.4,316.0,2.8,4.3,328.5,0.00,4.2,14.5,"04:28:40",1
"22/04/19","04:40",0.0,8.9,72.7,1011.2,332.5,3.0,4.2,343.0,0.00,4.3,14.6,"04:33:36",1
"22/04/19","04:50",0.0,9.6,71.4,1011.6,330.9,3.1,5.1,331.1,0.00,4.7,14.6,"04:43:28",1
"22/04/19","05:00",0.0,9.3,71.4,1011.2,324.8,3.1,4.2,317.4,0.00,4.4,14.3,"04:59:12",1
"22/04/19","05:10",0.0,9.4,70.7,1011.6,313.6,3.2,4.8,320.7,0.00,4.4,14.4,"05:01:36",1
"22/04/19","05:20",0.0,9.5,70.7,1011.4,325.5,3.1,4.7,318.3,0.00,4.5,14.2,"05:16:08",1
"22/04/19","05:30",0.0,9.4,71.0,1011.6,327.5,3.9,5.2,324.0,0.00,4.5,14.3,"05:23:04",1
"22/04/19","05:40",0.0,9.4,71.4,1011.4,314.0,3.2,4.4,318.7,0.00,4.5,14.2,"05:30:24",1
"22/04/19","05:50",0.0,9.2,71.8,1011.2,302.4,2.1,2.7,305.8,0.00,4.4,14.3,"05:40:56",1
"22/04/19","06:00",0.0,9.0,72.6,1011.2,282.7,2.0,2.4,264.9,0.00,4.4,14.1,"05:57:12",1
"22/04/19","06:10",0.0,8.7,73.6,1011.4,281.8,1.8,2.4,269.9,0.00,4.3,14.3,"06:02:00",1
"22/04/19","06:20",0.0,8.6,74.4,1011.9,282.6,1.7,2.2,268.8,0.00,4.4,14.2,"06:16:40",1
"22/04/19","06:30",0.0,8.7,75.2,1011.6,293.8,2.0,2.6,313.7,0.00,4.6,14.2,"06:22:08",1
"22/04/19","06:40",0.0,9.3,75.0,1012.1,323.9,2.5,3.7,311.6,0.01,5.1,14.0,"06:34:24",1
"22/04/19","06:50",0.0,10.0,74.3,1012.1,327.3,1.8,2.6,337.6,0.03,5.7,13.8,"06:49:28",1
"22/04/19","07:00",0.0,10.5,73.4,1012.3,328.5,2.2,3.1,344.1,0.04,6.0,14.0,"06:57:52",1
"22/04/19","07:10",0.0,11.0,72.2,1012.8,330.5,2.1,3.7,331.7,0.05,6.2,13.8,"07:09:52",1
"22/04/19","07:20",0.0,11.6,71.2,1012.8,320.0,2.3,3.7,326.2,0.08,6.6,13.9,"07:15:28",1
"22/04/19","07:30",0.0,12.3,69.6,1012.3,319.2,2.3,4.0,332.4,0.10,6.9,13.7,"07:23:20",1
"22/04/19","07:40",0.0,13.0,68.0,1012.8,316.4,1.8,2.7,335.3,0.12,7.3,13.9,"07:38:48",1
"22/04/19","07:50",0.0,13.6,66.1,1012.6,290.8,1.6,2.2,332.9,0.15,7.4,13.7,"07:42:16",1
"22/04/19","08:00",0.0,14.0,64.8,1013.0,274.0,1.8,2.8,254.4,0.19,7.5,14.0,"07:55:04",1
"22/04/19","08:10",0.0,14.5,64.9,1013.0,282.9,1.5,2.8,313.4,0.20,8.0,13.8,"08:09:28",1
"22/04/19","08:20",0.0,14.5,65.0,1012.8,329.3,3.0,4.9,342.2,0.20,8.0,13.8,"08:17:12",1
"22/04/19","08:30",0.0,14.8,65.5,1012.3,316.6,3.0,5.2,348.6,0.22,8.4,13.9,"08:28:40",1
"22/04/19","08:40",0.0,14.9,65.2,1012.6,303.8,2.7,6.0,334.0,0.22,8.5,14.0,"08:35:12",1
"22/04/19","08:50",0.0,15.4,64.9,1013.3,292.7,2.0,4.8,342.4,0.25,8.9,14.0,"08:40:24",1
"22/04/19","09:00",0.0,15.7,65.5,1012.6,337.1,3.0,5.0,339.6,0.27,9.3,13.8,"08:51:04",1
"22/04/19","09:10",0.0,15.9,64.6,1012.8,334.4,2.7,4.4,346.2,0.28,9.3,14.0,"09:03:44",1
"22/04/19","09:20",0.0,16.4,62.5,1012.8,346.8,2.1,4.4,353.0,0.31,9.3,14.0,"09:10:16",1
"22/04/19","09:30",0.0,17.2,61.7,1013.0,330.0,1.5,4.3,347.4,0.33,9.8,14.1,"09:23:12",1
"22/04/19","09:40",0.0,17.1,58.9,1012.8,300.5,1.8,4.4,332.8,0.31,9.0,14.2,"09:37:28",1
"22/04/19","09:50",0.0,17.2,59.0,1012.6,301.5,2.1,3.4,332.8,0.34,9.2,14.1,"09:43:20",1
"22/04/19","10:00",0.0,17.1,56.8,1012.6,295.6,1.8,3.7,316.1,0.34,8.5,14.3,"09:55:20",1
"22/04/19","10:10",0.0,17.1,57.9,1012.6,286.2,2.2,4.1,312.2,0.33,8.8,14.4,"10:06:56",1
"22/04/19","10:20",0.0,17.5,56.4,1012.6,286.4,1.8,4.1,313.0,0.34,8.8,14.3,"10:11:20",1
"22/04/19","10:30",0.0,18.0,55.1,1012.3,317.5,1.3,3.1,333.0,0.35,8.9,14.4,"10:20:08",1
"22/04/19","10:40",0.0,18.3,53.7,1012.1,283.4,1.7,3.3,235.5,0.48,8.8,14.5,"10:31:28",1
"22/04/19","10:50",0.0,19.5,52.6,1012.3,63.6,1.0,2.7,190.5,0.51,9.6,14.4,"10:48:56",1
"22/04/19","11:00",0.0,19.7,50.3,1012.1,155.0,1.7,4.9,146.6,0.52,9.1,14.7,"10:59:20",1
"22/04/19","11:10",0.0,19.3,50.0,1012.1,120.6,2.2,4.3,107.9,0.49,8.7,14.6,"11:06:24",1
"22/04/19","11:20",0.0,19.7,51.7,1012.1,143.0,2.1,4.1,130.5,0.51,9.5,14.7,"11:19:28",1
"22/04/19","11:30",0.0,19.9,51.9,1011.9,184.8,2.1,4.3,219.4,0.52,9.8,14.7,"11:26:00",1
"22/04/19","11:40",0.0,19.9,49.1,1011.9,151.4,2.7,5.0,118.1,0.54,9.0,14.7,"11:30:40",1
"22/04/19","11:50",0.0,20.6,48.7,1012.1,141.5,1.8,3.9,133.4,0.56,9.5,14.9,"11:48:40",1
"22/04/19","12:00",0.0,21.4,47.6,1011.2,137.2,1.3,3.3,131.3,0.57,9.9,15.0,"11:58:16",1
"22/04/19","12:10",0.0,21.1,42.4,1011.2,117.6,1.5,4.0,123.9,0.57,7.9,15.3,"12:06:16",1
"22/04/19","12:20",0.0,21.2,43.7,1011.2,141.0,2.2,4.8,159.4,0.59,8.4,15.1,"12:17:20",1
"22/04/19","12:30",0.0,21.7,30.7,1010.9,87.3,1.6,3.6,121.1,0.60,3.8,15.4,"12:27:52",1
"22/04/19","12:40",0.0,21.9,28.2,1010.9,358.6,2.7,8.1,358.4,0.60,2.7,15.4,"12:38:00",1
"22/04/19","12:50",0.0,22.1,28.5,1010.7,46.9,2.0,6.5,346.2,0.55,3.0,15.5,"12:42:00",1
"22/04/19","13:00",0.0,22.8,29.0,1010.4,349.9,2.1,5.2,358.9,0.61,3.9,15.5,"12:56:48",1
"22/04/19","13:10",0.0,21.9,28.5,1010.2,330.4,4.4,8.8,328.6,0.59,2.9,15.4,"13:06:12",1
"22/04/19","13:20",0.0,22.3,26.9,1010.7,352.2,2.3,4.8,351.7,0.53,2.4,16.0,"13:12:56",1
"22/04/19","13:30",0.0,22.1,27.6,1010.7,328.9,3.5,9.5,335.4,0.54,2.6,15.9,"13:21:52",1
"22/04/19","13:40",0.0,22.3,28.0,1010.2,342.3,2.7,8.9,332.9,0.49,3.0,15.9,"13:37:36",1
"22/04/19","13:50",0.0,22.7,24.9,1010.4,18.1,2.1,4.9,34.4,0.51,1.7,16.0,"13:45:44",1
"22/04/19","14:00",0.0,22.5,26.0,1010.0,358.9,2.5,7.3,349.3,0.49,2.1,16.2,"13:59:36",1
"22/04/19","14:10",0.0,22.6,26.1,1010.2,331.7,2.3,7.4,320.6,0.49,2.2,16.1,"14:09:28",1
"22/04/19","14:20",0.0,22.6,26.8,1010.0,352.0,2.3,6.6,332.7,0.40,2.6,16.1,"14:10:08",1
"22/04/19","14:30",0.0,22.4,25.8,1010.0,359.5,2.7,6.0,346.4,0.37,1.9,16.3,"14:25:52",1
"22/04/19","14:40",0.0,22.3,26.4,1010.0,352.5,2.8,5.8,350.0,0.42,2.1,16.4,"14:35:20",1
"22/04/19","14:50",0.0,22.4,26.7,1010.2,4.9,2.2,5.6,354.1,0.36,2.4,16.3,"14:42:00",1
"22/04/19","15:00",0.0,22.4,27.0,1009.5,355.2,2.7,7.0,328.5,0.42,2.5,16.4,"14:58:16",1
"22/04/19","15:10",0.0,22.8,26.8,1009.7,357.8,1.8,5.4,347.2,0.39,2.8,16.6,"15:00:40",1
"22/04/19","15:20",0.0,22.8,24.7,1009.7,39.6,1.7,4.7,352.5,0.37,1.6,16.4,"15:10:48",1
"22/04/19","15:30",0.0,22.3,27.0,1010.0,14.2,2.6,5.2,350.0,0.31,2.5,16.4,"15:23:20",1
"22/04/19","15:40",0.0,22.7,26.3,1010.0,354.3,1.8,4.7,337.3,0.33,2.4,16.7,"15:31:04",1
"22/04/19","15:50",0.0,22.6,26.7,1010.0,345.0,2.5,5.8,349.9,0.35,2.6,16.6,"15:40:24",1
"22/04/19","16:00",0.0,21.9,25.7,1009.7,340.3,3.4,8.2,338.4,0.31,1.4,16.5,"15:51:52",1
"22/04/19","16:10",0.0,21.9,28.3,1010.0,344.4,3.5,6.3,334.3,0.28,2.8,16.4,"16:05:44",1
"22/04/19","16:20",0.0,21.6,25.9,1009.5,337.5,3.6,6.7,322.5,0.26,1.3,16.7,"16:18:24",1
"22/04/19","16:30",0.0,21.9,26.8,1009.5,346.1,2.8,5.7,342.9,0.24,2.0,16.6,"16:21:36",1
"22/04/19","16:40",0.0,21.4,25.9,1010.0,350.1,3.7,6.2,20.1,0.22,1.1,16.9,"16:30:08",1
"22/04/19","16:50",0.0,21.6,26.6,1010.0,358.7,2.3,4.7,343.0,0.19,1.6,16.9,"16:49:20",1
"22/04/19","17:00",0.0,21.5,26.2,1010.0,352.6,2.6,6.6,348.1,0.17,1.4,16.8,"16:57:04",1
"22/04/19","17:10",0.0,21.7,26.5,1010.2,0.5,1.8,4.2,346.7,0.14,1.7,16.9,"17:01:28",1
"22/04/19","17:20",0.0,21.4,26.3,1010.0,353.4,2.1,4.3,349.8,0.12,1.3,16.7,"17:11:20",1
"22/04/19","17:30",0.0,21.2,26.0,1010.4,1.4,1.7,3.9,346.6,0.10,1.0,16.8,"17:27:20",1
"22/04/19","17:40",0.0,20.9,27.5,1010.2,1.3,1.8,3.4,15.6,0.08,1.5,16.8,"17:30:56",1
"22/04/19","17:50",0.0,20.4,27.5,1010.2,353.9,2.3,4.4,356.5,0.06,1.1,16.8,"17:49:52",1
"22/04/19","18:00",0.0,19.9,29.0,1010.4,350.0,2.7,5.6,336.6,0.04,1.4,16.7,"17:55:44",1
"22/04/19","18:10",0.0,19.5,29.0,1010.4,349.4,2.5,4.8,346.8,0.03,1.0,16.9,"18:01:12",1
"22/04/19","18:20",0.0,19.1,28.8,1010.7,349.4,2.6,4.8,339.0,0.01,0.6,16.6,"18:11:12",1
"22/04/19","18:30",0.0,18.5,30.1,1010.7,344.3,2.3,4.1,339.5,0.01,0.7,16.6,"18:29:44",1
"22/04/19","18:40",0.0,18.0,33.5,1010.9,339.0,2.5,4.0,331.7,0.00,1.8,16.9,"18:33:12",1
"22/04/19","18:50",0.0,17.2,35.8,1010.7,333.5,2.5,3.3,332.8,0.00,2.0,16.5,"18:47:36",1
"22/04/19","19:00",0.0,16.6,37.3,1010.9,332.4,2.7,3.6,340.0,0.00,2.0,16.6,"18:58:40",1
"22/04/19","19:10",0.0,16.3,37.4,1011.4,325.3,2.3,3.2,332.7,0.00,1.8,16.7,"19:05:52",1
"22/04/19","19:20",0.0,16.1,37.8,1011.6,305.9,1.8,3.7,307.6,0.00,1.8,16.6,"19:14:00",1
"22/04/19","19:30",0.0,15.5,39.5,1012.1,278.6,1.5,2.8,261.0,0.00,1.8,16.5,"19:26:16",1
"22/04/19","19:40",0.0,15.3,38.2,1011.9,293.6,2.1,3.9,312.8,0.00,1.2,16.6,"19:39:52",1
"22/04/19","19:50",0.0,15.4,37.4,1011.9,323.4,2.8,4.2,336.4,0.00,1.0,16.5,"19:45:20",1
"22/04/19","20:00",0.0,15.0,39.1,1012.3,332.9,2.2,3.2,341.1,0.00,1.2,16.6,"19:50:56",1
"22/04/19","20:10",0.0,14.1,42.8,1012.6,265.1,0.7,1.4,254.3,0.00,1.7,16.2,"20:00:56",1
"22/04/19","20:20",0.0,14.1,42.8,1012.3,304.6,2.1,4.0,319.2,0.00,1.7,16.3,"20:16:52",1
"22/04/19","20:30",0.0,14.0,44.3,1012.3,307.2,3.0,4.0,309.2,0.00,2.1,16.2,"20:26:14",1
"22/04/19","20:40",0.0,13.5,45.5,1012.6,302.3,2.1,4.3,313.9,0.00,2.0,16.2,"20:31:04",1
"22/04/19","20:50",0.0,13.0,46.8,1012.6,307.1,1.0,2.1,320.5,0.00,1.9,16.3,"20:49:34",1
"22/04/19","21:00",0.0,12.4,48.1,1013.0,293.5,1.6,2.9,303.7,0.00,1.8,16.0,"20:52:14",1
"22/04/19","21:10",0.0,11.8,50.8,1012.6,288.9,1.2,2.7,303.6,0.00,2.0,16.1,"21:09:54",1
"22/04/19","21:20",0.0,12.5,49.6,1012.8,311.5,3.1,5.5,323.9,0.00,2.3,16.0,"21:18:44",1
"22/04/19","21:30",0.0,12.5,49.1,1012.6,289.5,2.2,4.1,319.9,0.00,2.2,15.9,"21:20:42",1
"22/04/19","21:40",0.0,12.3,49.5,1012.6,303.8,2.5,3.2,307.8,0.00,2.1,15.9,"21:38:04",1
"22/04/19","21:50",0.0,11.9,52.0,1012.8,331.8,3.0,3.7,326.0,0.00,2.4,15.9,"21:44:24",1
"22/04/19","22:00",0.0,11.7,52.3,1012.8,334.8,3.1,4.3,340.8,0.00,2.3,15.8,"21:58:32",1
"22/04/19","22:10",0.0,11.9,50.6,1012.8,331.9,2.6,4.0,340.9,0.00,2.0,15.6,"22:06:18",1
"22/04/19","22:20",0.0,12.1,49.3,1013.0,333.8,2.6,4.4,343.2,0.00,1.8,15.5,"22:16:46",1
"22/04/19","22:30",0.0,12.2,48.3,1013.3,340.2,3.0,5.0,337.2,0.00,1.6,15.7,"22:28:42",1
"22/04/19","22:40",0.0,11.8,48.6,1013.0,332.8,3.5,4.9,314.3,0.00,1.4,15.8,"22:36:08",1
"22/04/19","22:50",0.0,12.1,46.8,1013.0,326.1,3.6,4.3,343.3,0.00,1.1,15.6,"22:40:56",1
"22/04/19","23:00",0.0,12.1,48.5,1013.3,329.6,3.2,4.5,327.4,0.00,1.6,15.5,"22:51:52",1
"22/04/19","23:10",0.0,11.4,51.0,1013.0,320.0,2.7,3.9,332.8,0.00,1.7,15.4,"23:05:50",1
"22/04/19","23:20",0.0,10.9,52.5,1013.0,309.9,1.6,2.8,348.6,0.00,1.6,15.1,"23:19:24",1
"22/04/19","23:30",0.0,10.8,53.4,1013.5,334.1,2.7,4.0,344.8,0.00,1.8,15.2,"23:28:24",1
"22/04/19","23:40",0.0,10.9,53.8,1013.0,338.7,3.0,4.1,328.3,0.00,2.0,15.1,"23:33:52",1
"22/04/19","23:50",0.0,10.8,55.1,1013.3,336.1,2.8,4.2,342.5,0.00,2.2,15.3,"23:40:08",1
"22/04/19","24:00",0.0,10.7,54.9,1013.3,339.0,3.4,5.0,339.9,0.00,2.0,15.3,"23:50:32",1
